Location: El Águila
(10.4167°N, 66.7167°W)
Time: 04:19:47
(UTC+00:00)

Cosmos 2221 Rocket - Pass Details

Date: 02 October 2022
Orbit: 619 x 648 km, 82.5° (Epoch: 04 December)

Event Time Altitude Azimuth Distance (km) Brightness Sun altitude
Rises 23:00:03 0° 7° (N) 2,945 6.9 -11.5°
Reaches altitude 10° 23:02:24 10° 14° (NNE) 2,039 6.1 -12.1°
Maximum altitude 23:06:41 43° 85° (E) 913 3.9 -13.1°
Drops below altitude 10° 23:11:00 10° 157° (SSE) 2,042 6.0 -14.2°
Sets 23:13:20 0° 163° (SSE) 2,951 6.9 -14.8°
